Satellite: AUBIESAT Catalog number: 37854 Epoch time: 13226.16543943 Element set: 558 Inclination: 101.7080 deg RA of node: 107.6743 deg Eccentricity: 0.0233268 Arg of perigee: 219.5790 deg Mean anomaly: 269.9665 deg Mean motion: 14.84808087 rev/day Decay rate: 3.792e-05 rev/day^2 Epoch rev: 9706 Checksum: 338
Satellite: HRBE Catalog number: 37855 Epoch time: 13225.69354262 Element set: 564 Inclination: 101.7080 deg RA of node: 106.6990 deg Eccentricity: 0.0234392 Arg of perigee: 221.5124 deg Mean anomaly: 171.8681 deg Mean motion: 14.84449669 rev/day Decay rate: 1.974e-05 rev/day^2 Epoch rev: 9698 Checksum: 329
Satellite: RS-39 Catalog number: 38051 Epoch time: 13227.50737319 Element set: 699 Inclination: 051.6347 deg RA of node: 283.9093 deg Eccentricity: 0.0011466 Arg of perigee: 117.0038 deg Mean anomaly: 019.7126 deg Mean motion: 15.34179593 rev/day Decay rate: 9.923e-05 rev/day^2 Epoch rev: 8688 Checksum: 336
Satellite: E-STAR Catalog number: 38079 Epoch time: 13227.80808342 Element set: 358 Inclination: 069.4707 deg RA of node: 039.0203 deg Eccentricity: 0.0586975 Arg of perigee: 057.6410 deg Mean anomaly: 308.0228 deg Mean motion: 14.52520095 rev/day Decay rate: 4.8649e-04 rev/day^2 Epoch rev: 7838 Checksum: 325
Satellite: GOLIAT Catalog number: 38085 Epoch time: 13227.83893384 Element set: 294 Inclination: 069.4769 deg RA of node: 041.6203 deg Eccentricity: 0.0597880 Arg of perigee: 058.9165 deg Mean anomaly: 306.9767 deg Mean motion: 14.50105384 rev/day Decay rate: 4.4051e-04 rev/day^2 Epoch rev: 7831 Checksum: 337
Satellite: HORYU-2 Catalog number: 38340 Epoch time: 13226.53333066 Element set: 576 Inclination: 098.2209 deg RA of node: 174.7082 deg Eccentricity: 0.0013874 Arg of perigee: 068.6769 deg Mean anomaly: 291.5847 deg Mean motion: 14.71078016 rev/day Decay rate: 8.30e-06 rev/day^2 Epoch rev: 6669 Checksum: 324
Satellite: RS-40 Catalog number: 38736 Epoch time: 13226.67538450 Element set: 345 Inclination: 082.4804 deg RA of node: 118.6698 deg Eccentricity: 0.0020410 Arg of perigee: 196.7181 deg Mean anomaly: 163.3229 deg Mean motion: 12.42869867 rev/day Decay rate: 1.0e-07 rev/day^2 Epoch rev: 4751 Checksum: 308
Satellite: PROITERES Catalog number: 38756 Epoch time: 13227.36632339 Element set: 32 Inclination: 098.2497 deg RA of node: 305.4905 deg Eccentricity: 0.0011247 Arg of perigee: 280.0812 deg Mean anomaly: 079.9125 deg Mean motion: 14.74295268 rev/day Decay rate: 3.43e-06 rev/day^2 Epoch rev: 5011 Checksum: 292
Satellite: RAIKO Catalog number: 38852 Epoch time: 13218.07382584 Element set: 340 Inclination: 051.6160 deg RA of node: 184.0336 deg Eccentricity: 0.0004489 Arg of perigee: 261.9162 deg Mean anomaly: 100.6538 deg Mean motion: 16.48474690 rev/day Decay rate: 2.4681979e-01 rev/day^2 Epoch rev: 4784 Checksum: 326
Satellite: FITSAT 1 Catalog number: 38853 Epoch time: 13184.86912902 Element set: 315 Inclination: 051.6252 deg RA of node: 351.6077 deg Eccentricity: 0.0011722 Arg of perigee: 245.9321 deg Mean anomaly: 114.2104 deg Mean motion: 16.39337660 rev/day Decay rate: 6.638326e-02 rev/day^2 Epoch rev: 4270 Checksum: 289
Satellite: TechEdSat Catalog number: 38854 Epoch time: 13124.93253577 Element set: 290 Inclination: 051.6449 deg RA of node: 297.0261 deg Eccentricity: 0.0010505 Arg of perigee: 310.8629 deg Mean anomaly: 049.0629 deg Mean motion: 16.38844728 rev/day Decay rate: 1.1592855e-01 rev/day^2 Epoch rev: 3329 Checksum: 325
Satellite: F 1 Catalog number: 38855 Epoch time: 13129.77714356 Element set: 287 Inclination: 051.5085 deg RA of node: 272.4145 deg Eccentricity: 0.0008326 Arg of perigee: 194.2908 deg Mean anomaly: 166.5495 deg Mean motion: 16.49710473 rev/day Decay rate: 2.7424026e-01 rev/day^2 Epoch rev: 3394 Checksum: 332
Satellite: WeWish Catalog number: 38856 Epoch time: 13069.98095549 Element set: 248 Inclination: 051.6166 deg RA of node: 215.0521 deg Eccentricity: 0.0008325 Arg of perigee: 316.0438 deg Mean anomaly: 044.8765 deg Mean motion: 16.41348316 rev/day Decay rate: 1.6701328e-01 rev/day^2 Epoch rev: 2458 Checksum: 318
Satellite: OSSI-1 Catalog number: 39131 Epoch time: 13188.41684431 Element set: 8 Inclination: 064.8841 deg RA of node: 114.8425 deg Eccentricity: 0.0051126 Arg of perigee: 026.6892 deg Mean anomaly: 350.0589 deg Mean motion: 16.22925119 rev/day Decay rate: 1.502874e-02 rev/day^2 Epoch rev: 1237 Checksum: 296
Satellite: BEESAT-3 Catalog number: 39134 Epoch time: 13226.95487473 Element set: 289 Inclination: 064.8754 deg RA of node: 023.9607 deg Eccentricity: 0.0006756 Arg of perigee: 201.7914 deg Mean anomaly: 299.9937 deg Mean motion: 15.00705889 rev/day Decay rate: 2.559e-05 rev/day^2 Epoch rev: 1764 Checksum: 351
Satellite: BEESAT-2 Catalog number: 39136 Epoch time: 13227.73020843 Element set: 276 Inclination: 064.8750 deg RA of node: 021.5380 deg Eccentricity: 0.0005583 Arg of perigee: 211.1211 deg Mean anomaly: 149.0004 deg Mean motion: 15.00642818 rev/day Decay rate: 2.444e-05 rev/day^2 Epoch rev: 1776 Checksum: 257
/EX
participants (1)
-
Ray Hoad